Time,TemperatureF,DewpointF,PressureIn,WindDirection,WindDirectionDegrees,WindSpeedMPH,WindSpeedGustMPH,Humidity,HourlyPrecipIn,Conditions,Clouds,dailyrainin,SoftwareType,DateUTC
2013-05-14 01:00:00,45.0,43.0,-100.00,SE,135,3.0,5.0,92,-99.99,,,-99.99,,2013-05-14 08:00:00,
2013-05-14 03:00:00,46.0,45.0,-100.00,ESE,115,2.0,6.0,96,-99.99,,,-99.99,,2013-05-14 10:00:00,
2013-05-14 04:20:00,45.0,45.0,-100.00,SSE,155,0.0,2.0,100,-99.99,,,-99.99,,2013-05-14 11:20:00,
2013-05-14 05:00:00,45.0,44.0,-100.00,South,170,1.0,3.0,96,-99.99,,,-99.99,,2013-05-14 12:00:00,
2013-05-14 05:02:00,45.0,45.0,-100.00,SSE,155,0.0,2.0,100,-99.99,,,-99.99,,2013-05-14 12:02:00,
2013-05-14 05:12:00,45.0,45.0,-100.00,SSE,155,0.0,2.0,100,-99.99,,,-99.99,,2013-05-14 12:12:00,
2013-05-14 07:00:00,46.0,45.0,-100.00,SE,140,0.0,1.0,96,-99.99,,,-99.99,,2013-05-14 14:00:00,
2013-05-14 10:03:00,49.0,47.0,-100.00,NE,35,1.0,5.0,92,-99.99,,,-99.99,,2013-05-14 17:03:00,
2013-05-14 11:00:00,53.0,41.0,-100.00,North,5,1.0,7.0,63,-99.99,,,-99.99,,2013-05-14 18:00:00,
2013-05-14 13:00:00,57.0,40.0,-100.00,West,280,3.0,7.0,52,-99.99,,,-99.99,,2013-05-14 20:00:00,
2013-05-14 17:00:00,60.0,45.0,-100.00,NW,315,2.0,7.0,57,-99.99,,,-99.99,,2013-05-15 00:00:00,
2013-05-14 20:01:00,58.0,48.0,-100.00,NW,320,2.0,7.0,69,-99.99,,,-99.99,,2013-05-15 03:01:00,
2013-05-14 20:20:00,52.0,44.0,-100.00,NNW,335,2.0,5.0,74,-99.99,,,-99.99,,2013-05-15 03:20:00,
2013-05-14 21:03:00,52.0,44.0,-100.00,NNW,335,2.0,5.0,74,-99.99,,,-99.99,,2013-05-15 04:03:00,
2013-05-14 21:10:00,51.0,43.0,-100.00,West,270,2.0,3.0,73,-99.99,,,-99.99,,2013-05-15 04:10:00,
2013-05-14 21:12:00,52.0,44.0,-100.00,NNW,335,2.0,5.0,74,-99.99,,,-99.99,,2013-05-15 04:12:00,
2013-05-14 22:02:00,51.0,43.0,-100.00,West,270,2.0,3.0,73,-99.99,,,-99.99,,2013-05-15 05:02:00,
2013-05-14 22:20:00,49.0,44.0,-100.00,NW,305,0.0,1.0,82,-99.99,,,-99.99,,2013-05-15 05:20:00,
2013-05-14 23:02:00,49.0,44.0,-100.00,NW,305,0.0,1.0,82,-99.99,,,-99.99,,2013-05-15 06:02:00,
2013-05-14 23:10:00,47.0,44.0,-100.00,SSE,160,0.0,1.0,89,-99.99,,,-99.99,,2013-05-15 06:10:00,
2013-05-14 23:11:00,49.0,44.0,-100.00,NW,305,0.0,1.0,82,-99.99,,,-99.99,,2013-05-15 06:11:00,